• In Hungary
  • List of Countries
  • For 7 days
  • Water Temperature
  • Satellite Maps
  • Weather Map
  • News
  • Weather Widgets
  • user-avatar
    Login

    Hourly Weather Guyukin Log

    Today, 18 September, Tuesday

    Time Temperature Precipitation Wind Pressure Humidity
    00:00 +10°C° 0 mm 3 mps 745 mmHg 85%
    01:00 +10°C° 0 mm 3 mps 745 mmHg 85%
    02:00 +9°C° 0 mm 2 mps 744 mmHg 88%
    03:00 +10°C° 0 mm 3 mps 744 mmHg 86%
    04:00 +10°C° 0 mm 3 mps 744 mmHg 84%
    05:00 +10°C° 0 mm 4 mps 744 mmHg 83%
    06:00 +10°C° 0 mm 5 mps 744 mmHg 80%
    07:00 +12°C° 0 mm 5 mps 743 mmHg 77%
    08:00 +13°C° 0 mm 6 mps 743 mmHg 73%
    09:00 +15°C° 0 mm 6 mps 743 mmHg 70%
    10:00 +16°C° 0 mm 6 mps 743 mmHg 67%
    11:00 +17°C° 0 mm 6 mps 743 mmHg 64%
    12:00 +19°C° 0 mm 6 mps 743 mmHg 62%
    13:00 +19°C° 0 mm 6 mps 743 mmHg 60%
    14:00 +19°C° 0 mm 6 mps 743 mmHg 58%
    15:00 +19°C° 0 mm 5 mps 743 mmHg 62%
    16:00 +18°C° 0 mm 4 mps 743 mmHg 66%
    17:00 +17°C° 0 mm 3 mps 743 mmHg 70%
    18:00 +14°C° 0 mm 3 mps 743 mmHg 74%
    19:00 +13°C° 0 mm 3 mps 743 mmHg 79%
    20:00 +13°C° 0 mm 2 mps 744 mmHg 84%
    21:00 +12°C° 0 mm 2 mps 744 mmHg 86%
    22:00 +12°C° 0 mm 2 mps 744 mmHg 88%
    23:00 +10°C° 0 mm 2 mps 744 mmHg 90%

    Tomorrow, 19 September, Wednesday

    Time Temperature Precipitation Wind Pressure Humidity
    00:00 +10°C° 0 mm 2 mps 745 mmHg 91%
    01:00 +10°C° 0 mm 2 mps 745 mmHg 92%
    02:00 +10°C° 0 mm 2 mps 745 mmHg 93%
    03:00 +10°C° 0 mm 2 mps 745 mmHg 93%
    04:00 +9°C° 0 mm 2 mps 745 mmHg 94%
    05:00 +9°C° 0 mm 2 mps 745 mmHg 94%
    06:00 +12°C° 0 mm 2 mps 745 mmHg 90%
    07:00 +12°C° 0 mm 3 mps 745 mmHg 85%
    08:00 +14°C° 0 mm 3 mps 745 mmHg 80%
    09:00 +17°C° 0 mm 3 mps 745 mmHg 74%
    10:00 +19°C° 0 mm 4 mps 745 mmHg 68%
    11:00 +21°C° 0 mm 4 mps 745 mmHg 62%
    12:00 +21°C° 0 mm 4 mps 745 mmHg 60%
    13:00 +22°C° 0 mm 5 mps 745 mmHg 57%
    14:00 +23°C° 0 mm 5 mps 744 mmHg 55%
    15:00 +22°C° 0 mm 4 mps 744 mmHg 60%
    16:00 +21°C° 0 mm 4 mps 744 mmHg 64%
    17:00 +20°C° 0 mm 3 mps 744 mmHg 69%
    18:00 +19°C° 0 mm 3 mps 744 mmHg 74%
    19:00 +17°C° 0 mm 3 mps 744 mmHg 80%
    20:00 +16°C° 0 mm 3 mps 744 mmHg 85%
    21:00 +14°C° 0 mm 3 mps 744 mmHg 87%
    22:00 +14°C° 0 mm 3 mps 744 mmHg 89%
    23:00 +14°C° 0 mm 3 mps 744 mmHg 91%

    Day after tomorrow, 20 September, Thursday

    Time Temperature Precipitation Wind Pressure Humidity
    00:00 +14°C° 0 mm 3 mps 744 mmHg 92%
    01:00 +14°C° 0 mm 3 mps 744 mmHg 93%
    02:00 +13°C° 0 mm 3 mps 744 mmHg 93%
    03:00 +13°C° 0 mm 3 mps 744 mmHg 94%
    04:00 +13°C° 0 mm 3 mps 744 mmHg 94%
    05:00 +13°C° 0 mm 3 mps 744 mmHg 95%
    06:00 +14°C° 0 mm 3 mps 744 mmHg 90%
    07:00 +16°C° 0 mm 3 mps 744 mmHg 86%
    08:00 +18°C° 0 mm 4 mps 744 mmHg 82%
    09:00 +20°C° 0 mm 4 mps 744 mmHg 76%
    10:00 +21°C° 0 mm 4 mps 744 mmHg 70%
    11:00 +23°C° 0 mm 4 mps 744 mmHg 63%
    12:00 +25°C° 0 mm 4 mps 744 mmHg 61%
    13:00 +25°C° 0 mm 4 mps 744 mmHg 59%
    14:00 +26°C° 0 mm 4 mps 744 mmHg 57%
    15:00 +25°C° 0 mm 4 mps 744 mmHg 62%
    16:00 +24°C° 0 mm 3 mps 744 mmHg 67%
    17:00 +21°C° 0 mm 2 mps 744 mmHg 72%
    18:00 +20°C° 0 mm 2 mps 744 mmHg 77%
    19:00 +19°C° 0 mm 2 mps 744 mmHg 82%
    20:00 +17°C° 0 mm 2 mps 745 mmHg 87%
    21:00 +17°C° 0 mm 2 mps 745 mmHg 89%
    22:00 +16°C° 0 mm 1 mps 745 mmHg 90%
    23:00 +16°C° 0 mm 1 mps 745 mmHg 92%

    21 September, Friday

    Time Temperature Precipitation Wind Pressure Humidity
    00:00 +15°C° 0 mm 1 mps 745 mmHg 92%
    01:00 +15°C° 0 mm 1 mps 745 mmHg 92%
    02:00 +14°C° 0 mm 0 mps 745 mmHg 92%
    03:00 +13°C° 0 mm 0 mps 745 mmHg 92%
    04:00 +13°C° 0 mm 0 mps 745 mmHg 93%
    05:00 +13°C° 0 mm 0 mps 745 mmHg 93%
    06:00 +14°C° 0 mm 0 mps 746 mmHg 88%
    07:00 +16°C° 0 mm 0 mps 746 mmHg 84%
    08:00 +17°C° 0 mm 0 mps 746 mmHg 79%
    09:00 +19°C° 0 mm 0 mps 746 mmHg 72%
    10:00 +23°C° 0 mm 1 mps 746 mmHg 66%
    11:00 +24°C° 0 mm 1 mps 746 mmHg 59%
    12:00 +25°C° 0 mm 1 mps 746 mmHg 56%
    13:00 +25°C° 0 mm 1 mps 746 mmHg 53%
    14:00 +26°C° 0 mm 1 mps 746 mmHg 50%
    15:00 +25°C° 0 mm 1 mps 745 mmHg 54%
    16:00 +24°C° 0 mm 1 mps 745 mmHg 59%
    17:00 +23°C° 0 mm 1 mps 745 mmHg 64%
    18:00 +21°C° 0 mm 1 mps 745 mmHg 67%
    19:00 +20°C° 0 mm 1 mps 745 mmHg 70%
    20:00 +18°C° 0 mm 2 mps 745 mmHg 73%
    21:00 +18°C° 0 mm 2 mps 745 mmHg 74%
    22:00 +17°C° 0 mm 2 mps 745 mmHg 75%
    23:00 +17°C° 0 mm 2 mps 745 mmHg 77%

    22 September, Saturday

    Time Temperature Precipitation Wind Pressure Humidity
    00:00 +16°C° 0 mm 2 mps 745 mmHg 78%
    01:00 +16°C° 0 mm 2 mps 745 mmHg 79%
    02:00 +16°C° 0 mm 2 mps 745 mmHg 80%
    03:00 +15°C° 0 mm 2 mps 745 mmHg 80%
    04:00 +15°C° 0 mm 2 mps 744 mmHg 81%
    05:00 +15°C° 0 mm 2 mps 744 mmHg 81%
    06:00 +16°C° 0 mm 3 mps 744 mmHg 77%
    07:00 +17°C° 0 mm 3 mps 744 mmHg 72%
    08:00 +19°C° 0 mm 3 mps 744 mmHg 68%
    09:00 +20°C° 0 mm 4 mps 744 mmHg 63%
    10:00 +22°C° 0 mm 4 mps 744 mmHg 58%
    11:00 +25°C° 0 mm 4 mps 744 mmHg 53%
    12:00 +25°C° 0 mm 4 mps 743 mmHg 51%
    13:00 +25°C° 0 mm 4 mps 743 mmHg 50%
    14:00 +26°C° 0 mm 5 mps 742 mmHg 48%
    15:00 +25°C° 0 mm 4 mps 742 mmHg 53%
    16:00 +22°C° 0 mm 3 mps 742 mmHg 59%
    17:00 +21°C° 0 mm 3 mps 741 mmHg 64%
    18:00 +20°C° 0 mm 3 mps 741 mmHg 65%
    19:00 +19°C° 0 mm 3 mps 741 mmHg 66%
    20:00 +18°C° 0 mm 4 mps 741 mmHg 67%
    21:00 +18°C° 0 mm 4 mps 741 mmHg 65%
    22:00 +18°C° 0 mm 4 mps 741 mmHg 64%
    23:00 +18°C° 0 mm 4 mps 740 mmHg 62%

    23 September, Sunday

    Time Temperature Precipitation Wind Pressure Humidity
    00:00 +18°C° 0 mm 4 mps 740 mmHg 61%
    01:00 +18°C° 0 mm 4 mps 740 mmHg 59%
    02:00 +18°C° 0 mm 4 mps 739 mmHg 58%
    03:00 +17°C° 0 mm 4 mps 739 mmHg 58%
    04:00 +17°C° 0 mm 4 mps 739 mmHg 59%
    05:00 +15°C° 0 mm 4 mps 739 mmHg 60%
    06:00 +17°C° 0 mm 4 mps 739 mmHg 59%
    07:00 +18°C° 0 mm 4 mps 738 mmHg 59%
    08:00 +18°C° 0 mm 4 mps 738 mmHg 59%
    09:00 +19°C° 0 mm 4 mps 738 mmHg 58%
    10:00 +20°C° 0 mm 4 mps 738 mmHg 58%
    11:00 +20°C° 0 mm 4 mps 738 mmHg 58%
    12:00 +21°C° 0 mm 4 mps 738 mmHg 57%
    13:00 +21°C° 0 mm 3 mps 738 mmHg 56%
    14:00 +22°C° 0 mm 3 mps 738 mmHg 55%
    15:00 +21°C° 0 mm 3 mps 738 mmHg 59%
    16:00 +20°C° 0 mm 2 mps 738 mmHg 63%
    17:00 +19°C° 0 mm 2 mps 738 mmHg 67%
    18:00 +18°C° 0.3 mm 2 mps 738 mmHg 71%
    19:00 +17°C° 0.3 mm 2 mps 738 mmHg 74%
    20:00 +16°C° 0.3 mm 3 mps 738 mmHg 77%
    21:00 +16°C° 0.2 mm 3 mps 738 mmHg 78%
    22:00 +16°C° 0.2 mm 2 mps 738 mmHg 79%
    23:00 +15°C° 0.2 mm 2 mps 738 mmHg 79%
    Show more